Location: Poznań
(52.4062°N, 16.9234°E)
Time: 19:25:48
(UTC+01:00)

ISS - Visible Passes

Search period start: 22 February 2018 00:00
Search period end: 04 March 2018 00:00
Orbit: 402 x 407 km, 51.6° (Epoch: 23 February)

Date Brightness Start Highest point End Pass type
(mag) Time Alt. Az. Time Alt. Az. Time Alt. Az.
27 Feb -0.6 05:35:46 10° SSE 05:36:21 10° SE 05:36:55 10° SE visible
01 Mar -1.3 05:25:30 10° SSW 05:27:52 19° SE 05:30:14 10° E visible
02 Mar -1.0 04:34:23 10° SSE 04:35:47 12° SE 04:37:12 10° ESE visible
03 Mar -2.3 05:16:44 11° SW 05:19:26 30° SSE 05:22:22 10° E visible
